TimeEST,TemperatureF,Dew PointF,Humidity,Sea Level PressureIn,VisibilityMPH,Wind Direction,Wind SpeedMPH,Gust SpeedMPH,PrecipitationIn,Events,Conditions,WindDirDegrees,DateUTC
12:53 AM,15.1,9.0,77,30.17,10.0,WSW,3.5,-,N/A,,Clear,250,2013-01-02 05:53:00
1:53 AM,16.0,10.0,77,30.15,10.0,WSW,3.5,-,N/A,,Clear,240,2013-01-02 06:53:00
2:53 AM,14.0,9.0,80,30.17,10.0,WSW,3.5,-,N/A,,Clear,250,2013-01-02 07:53:00
3:53 AM,14.0,10.0,84,30.18,10.0,SW,5.8,-,N/A,,Clear,230,2013-01-02 08:53:00
4:53 AM,10.9,6.1,81,30.17,10.0,WSW,3.5,-,N/A,,Clear,240,2013-01-02 09:53:00
5:53 AM,10.0,6.1,84,30.20,10.0,WSW,3.5,-,N/A,,Clear,240,2013-01-02 10:53:00
6:53 AM,9.0,6.1,88,30.20,10.0,Calm,Calm,-,N/A,,Clear,0,2013-01-02 11:53:00
7:53 AM,8.1,3.9,83,30.19,8.0,Calm,Calm,-,N/A,,Clear,0,2013-01-02 12:53:00
8:53 AM,5.0,1.9,87,30.22,8.0,SW,4.6,-,N/A,,Clear,220,2013-01-02 13:53:00
9:53 AM,12.0,8.1,84,30.24,10.0,SW,5.8,-,N/A,,Clear,220,2013-01-02 14:53:00
10:53 AM,15.1,8.1,74,30.26,10.0,SW,5.8,-,N/A,,Clear,230,2013-01-02 15:53:00
11:53 AM,19.0,12.0,74,30.25,10.0,SW,5.8,-,N/A,,Scattered Clouds,220,2013-01-02 16:53:00
12:03 PM,19.4,10.4,68,30.21,10.0,WSW,4.6,-,N/A,,Mostly Cloudy,250,2013-01-02 17:03:00
12:53 PM,19.9,10.9,68,30.24,10.0,SW,6.9,-,N/A,,Overcast,220,2013-01-02 17:53:00
1:53 PM,19.9,12.0,71,30.22,10.0,SSW,6.9,-,N/A,,Overcast,210,2013-01-02 18:53:00
2:53 PM,21.0,12.9,71,30.21,10.0,SW,8.1,-,N/A,,Overcast,220,2013-01-02 19:53:00
3:53 PM,21.0,12.9,71,30.22,10.0,SSW,6.9,-,N/A,,Overcast,200,2013-01-02 20:53:00
4:53 PM,21.0,14.0,74,30.23,10.0,SSW,9.2,-,N/A,,Overcast,210,2013-01-02 21:53:00
5:53 PM,19.9,12.9,74,30.25,10.0,SW,5.8,-,N/A,,Overcast,230,2013-01-02 22:53:00
6:53 PM,19.9,12.9,74,30.26,10.0,SSW,5.8,-,N/A,,Overcast,210,2013-01-02 23:53:00
7:53 PM,19.0,10.9,71,30.26,10.0,SSW,8.1,-,N/A,,Overcast,210,2013-01-03 00:53:00
8:53 PM,15.1,7.0,70,30.26,10.0,SSW,3.5,-,N/A,,Scattered Clouds,200,2013-01-03 01:53:00
9:53 PM,12.9,5.0,71,30.25,9.0,South,3.5,-,N/A,,Clear,190,2013-01-03 02:53:00
10:53 PM,12.0,5.0,73,30.25,9.0,SSW,3.5,-,N/A,,Clear,200,2013-01-03 03:53:00